Regional Weather Roundup
Issued by NWS Grand Forks, ND

Home | Current Version | Previous Version | Text Only | Print | Product List | Glossary Off
Versions: 1 2 3 4 5 6 7 8 9 10 11 12 13 14 15 16 17 18 19 20 21 22 23 24 25 26 27 28 29 30 31 32 33 34 35 36 37 38 39 40 41 42 43 44 45 46 47 48 49 50

000
ASUS43 KFGF 041831
RWRFGF
PRAIRIE TO PINES  WEATHER ROUNDUP
NATIONAL WEATHER SERVICE EASTERN NORTH DAKOTA/GRAND FORKS ND
100 PM CDT FRI SEP 04 2015

 **SATELLITE DATA USED TO AUGMENT SKY COVER AT AUTOMATED STATIONS**
 *****  WEATHER ACROSS EASTERN NORTH DAKOTA  *****

CITY           SKY/WX    TMP DP  RH WIND       PRES   REMARKS
GRAND FORKS    CLOUDY    77  73  88 SE9       29.76F
6HR MIN TEMP:  72; 6HR MAX TEMP:  77; 6HR PCP:  0.04;

GRAND FRKS AFB CLOUDY    77  73  86 SE7       29.77F
GRAND FRKS NWS   N/A     75 N/A N/A S7          N/A
DEVILS LAKE    CLOUDY    70  61  73 SW8       29.79R THUNDER
6HR MIN TEMP:  73; 6HR MAX TEMP:  77;

FARGO          CLOUDY    82  68  62 S17       29.81R
WAHPETON ARPT  CLOUDY    72  68  88 S3        29.82F
$$

 ***** WEATHER ACROSS CENTRAL AND WESTERN NORTH DAKOTA  *****

CITY           SKY/WX    TMP DP  RH WIND       PRES   REMARKS
BISMARCK       CLOUDY    78  71  79 SE3       29.81R
6HR MIN TEMP:  71; 6HR MAX TEMP:  78;

MINOT          CLOUDY    73  63  70 NE8       29.79F
6HR MIN TEMP:  65; 6HR MAX TEMP:  73;

JAMESTOWN      CLOUDY    75  67  76 SE8       29.80R
6HR MIN TEMP:  73; 6HR MAX TEMP:  76; 6HR PCP:  0.14;

MINOT AFB      CLOUDY    72  67  86 NE8       29.78F
GARRISON         N/A     72  64  76 VRB3      29.81R
WILLISTON      CLOUDY    66  52  60 NE20      29.89R
6HR MIN TEMP:  61; 6HR MAX TEMP:  66; 6HR PCP: TRACE;

DICKINSON      CLOUDY    70  64  81 N10       29.83R
6HR MIN TEMP:  64; 6HR MAX TEMP:  70; 6HR PCP: TRACE;

HETTINGER      SUNNY     83  59  44 NE7       29.82S
6HR MIN TEMP:  64; 6HR MAX TEMP:  83;

$$

 *****  OTHER AIRPORT OBSERVATIONS IN OUR AREA  *****

CITY           SKY/WX    TMP DP  RH WIND       PRES   REMARKS
WALHALLA       TSTM      68  68 100 MISG      29.80R VSB 3/4
GRAFTON AIRPOR DRIZZLE   72  72 100 CALM      29.78S
VALLEY CITY AR LGT RAIN  72  72 100 S12       29.81S
CANDO          MOCLDY    72  66  83 N14       29.80R
CAVALIER APRT  MOCLDY    72  72 100 CALM      29.81R
GWINNER        MOCLDY    73  73 100 SE7       29.83S
SHEYENNE NWR     N/A     74  70  86 S3        29.95S
ROLLA          FOG       63  63 100 N14       29.83F VSB 1/2
 ***** THE ABOVE OBSERVATIONS ARE NON NWS ARE NOT QUALITY
       CONTROLLED AND MAY MIS-REPORT RAIN FOR SNOW...
$$

  *****  WEATHER ACROSS NORTHERN MINNESOTA  *****

CITY           SKY/WX    TMP DP  RH WIND       PRES   REMARKS
FLAG ISLAND    MOSUNNY   79  66  65 E7        29.84F
WARROAD        SUNNY     75  72  88 NE6       29.83F
ROSEAU         MOSUNNY   79  72  78 E6        29.81F
HALLOCK        TSTM      73  72  94 E8        29.79R
THF RVR FALLS  CLOUDY    79  70  73 SE13      29.82S
6HR MIN TEMP:  70; 6HR MAX TEMP:  81;

BAUDETTE       SUNNY     82  70  66 SE12G24   29.86F
6HR MIN TEMP:  63; 6HR MAX TEMP:  83;

WASKISH        SUNNY     81  72  74 E9G18     29.86F
CROOKSTON      LGT RAIN  81  73  78 S13       29.79F
STEPHEN NDAWN    N/A     79  72  78 E3          N/A
GREENBUSH NDAW   N/A     77  70  78 SE10        N/A
$$
  *****  WEATHER ACROSS CENTRAL AND WEST MINNESOTA  *****

CITY           SKY/WX    TMP DP  RH WIND       PRES   REMARKS
FOSSTON        PTSUNNY   79  66  65 SE15      29.85S
BEMIDJI        MOSUNNY   79  69  70 SE17      29.89R
PARK RAPIDS    PTSUNNY   81  68  64 S17G23    29.90R
6HR MIN TEMP:  68; 6HR MAX TEMP:  81;

ELBOW LAKE     LGT RAIN  76  72  86 S5        29.86S
6HR MIN TEMP:  73; 6HR MAX TEMP:  80;

WADENA         PTSUNNY   81  72  74 S10       29.88F
DETROIT LAKES  CLOUDY    81  70  69 S10       29.88S
MOORHEAD       CLOUDY    81  68  65 S10G18    29.82F
FERGUS FALLS   CLOUDY    77  70  78 SE6       29.82F
MORRIS MN      CLOUDY    81  70  69 E7        29.84F
STAPLES        PTSUNNY   81  70  69 SE7       29.91S
$$
  *****  WEATHER ELSEWHERE ACROSS MINNESOTA  *****

CITY           SKY/WX    TMP DP  RH WIND       PRES   REMARKS
DULUTH         MOSUNNY   74  64  71 SE13      30.01R
6HR MIN TEMP:  60; 6HR MAX TEMP:  74;

INTRNTL FALLS  MOSUNNY   82  68  62 S8G18     29.92F
6HR MIN TEMP:  58; 6HR MAX TEMP:  82;

ELY            MOSUNNY   81  57  44 SE13G20   30.00F
CLOQUET        SUNNY     73  63  68 E10       29.99S
WHEATON        LGT RAIN  72  70  94 E7        29.83F
BRAINERD       MOSUNNY   81  70  69 SE10      29.92R
6HR MIN TEMP:  67; 6HR MAX TEMP:  82;

HIBBING        SUNNY     81  69  67 SE17      29.97F
6HR MIN TEMP:  62; 6HR MAX TEMP:  81;

ALEXANDRIA     CLOUDY    82  70  66 S8        29.90F
6HR MIN TEMP:  72; 6HR MAX TEMP:  82;

SAINT CLOUD    MOSUNNY   83  72  69 SE10      29.91R
6HR MIN TEMP:  69; 6HR MAX TEMP:  84;

MINNEAPOLIS    MOSUNNY   85  72  65 E10       29.92S HX  91
6HR MIN TEMP:  71; 6HR MAX TEMP:  85;

$$

  *****  WEATHER ACROSS SOUTH DAKOTA  *****

CITY           SKY/WX    TMP DP  RH WIND       PRES   REMARKS
SIOUX FALLS    LGT RAIN  73  67  81 SE13      29.86S
6HR MIN TEMP:  73; 6HR MAX TEMP:  80; 6HR PCP:  0.06;

BROOKINGS      CLOUDY   N/A N/A N/A SE9       29.87F
WATERTOWN      CLOUDY    76  68  76 S6        29.85F
6HR MIN TEMP:  69; 6HR MAX TEMP:  76; 6HR PCP:  0.03;

HURON          PTSUNNY   84  68  58 S15G21    29.77F
6HR MIN TEMP:  70; 6HR MAX TEMP:  84; 6HR PCP:  0.16;

SISSETON         N/A     73  70  90 S5        29.81F
ABERDEEN       CLOUDY    80  68  66 S8        29.80F
6HR MIN TEMP:  71; 6HR MAX TEMP:  82; 6HR PCP:  0.02;

MITCHELL       PTSUNNY   85  68  56 S12       29.79F
PIERRE         SUNNY     85  66  53 E5        29.75F
6HR MIN TEMP:  69; 6HR MAX TEMP:  85; 6HR PCP:  0.01;

MOBRIDGE       PTSUNNY   86  66  51 SE12G21   29.77F
RAPID CITY     SUNNY     83  54  36 VRB3      29.83S
6HR MIN TEMP:  64; 6HR MAX TEMP:  84;

$$

  *****  SOME WEATHER IN NEARBY STATES *****

CITY           SKY/WX    TMP DP  RH WIND       PRES   REMARKS
GLASGOW MT     MOSUNNY   70  46  42 NE17      29.90F
6HR MIN TEMP:  52; 6HR MAX TEMP:  70;

GREAT FALLS MT LGT RAIN  50  49  96 E5        29.98S FOG
6HR MIN TEMP:  48; 6HR MAX TEMP:  51; 6HR PCP:  0.15;

CHEYENNE WY    MOSUNNY   82  35  18 W12       30.05F
6HR MIN TEMP:  51; 6HR MAX TEMP:  83;

SCOTTSBLUFF NE MOSUNNY   84  50  30 VRB3      29.91F
6HR MIN TEMP:  54; 6HR MAX TEMP:  84;

OMAHA NE       PTSUNNY   86  70  58 S14       29.90R HX  90
6HR MIN TEMP:  74; 6HR MAX TEMP:  86;

DES MOINES IA  PTSUNNY   87  69  54 SW12      29.95F HX  91
6HR MIN TEMP:  71; 6HR MAX TEMP:  89;

DAVENPORT IA   MOSUNNY   87  70  56 S5        30.01F HX  92
6HR MIN TEMP:  69; 6HR MAX TEMP:  89;

CHICAGO IL     MOSUNNY   82  68  62 VRB3      30.02F
6HR MIN TEMP:  69; 6HR MAX TEMP:  83;

EAU CLAIRE WI  SUNNY     82  69  64 SE10      29.98F
6HR MIN TEMP:  69; 6HR MAX TEMP:  82;

LA CROSSE WI   SUNNY     86  71  60 SE8       29.98F HX  91
6HR MIN TEMP:  69; 6HR MAX TEMP:  86;

$$

  *****  SOME NATIONAL WEATHER *****

CITY           SKY/WX    TMP DP  RH WIND       PRES   REMARKS
LA GUARDIA NY  PTSUNNY   80  67  64 NE13      30.11R
6HR MIN TEMP:  76; 6HR MAX TEMP:  81;

RALEIGH NC     MOSUNNY   90  68  48 E3        29.99F HX  94
6HR MIN TEMP:  73; 6HR MAX TEMP:  91;

ATLANTA GA     MOSUNNY   90  70  51 CALM      30.02F HX  95
6HR MIN TEMP:  71; 6HR MAX TEMP:  90;

NEW ORLEANS LA LGT RAIN  84  71  65 SE3       29.98F
6HR MIN TEMP:  79; 6HR MAX TEMP:  89; 6HR PCP:  0.02;

OKLAHOMA CITY  PTSUNNY   90  68  48 S13G21    29.98F HX  94
6HR MIN TEMP:  68; 6HR MAX TEMP:  90;

ALBUQUERQUE NM PTSUNNY   77  50  38 W8        30.14F
6HR MIN TEMP:  65; 6HR MAX TEMP:  77; 6HR PCP: TRACE;

SALT LAKE CITY MOSUNNY   84  36  18 S21G32    29.84F
6HR MIN TEMP:  72; 6HR MAX TEMP:  84;



USA.gov is the U.S. government's official web portal to all federal, state and local government web resources and services.